Content
SEND FEEDBACK

Daily
Averages
Monthly
Summary
United States of America

HOSKINS, OREGON


Home > North America > United States > Oregon
Elevation: 76 meters     Latitude: 44 41N     Longitude: 123 28W

WEATHER
 
SELECT A DAY
Number of Records: 440,335;   Date Range: 1/1/95 - 8/12/14
 
SHARE

PRINT THIS DATA

[ ← Previous Day ]
WEATHER ALMANAC - 31 JANUARY, 2013
[ Next Day → ]
[ °F ]   °C
Weather ElementAverageHighLow
Temperature7.9 °C12 °C (1:35 pm)6 °C (1:35 am)
Dewpoint6.2 °C8 °C (12:55 pm)5 °C (1:55 am)
Humidity89.3 %100 % (1:35 am)67 % (1:55 pm)
Barometer1029.8 hPa1031.8 hPa (12:35 am)1028.1 hPa (5:55 pm)
Wind Speed2.6 km/h7.4 km/h (4:35 am)
Weather ElementAverage
Visibility15.8 km
Wind DirectionE (87.2 °)

Weather ElementTotal
Precipitation---
Heating Degree Days9.3 (Base 18.3)
Averaged from 67 records on 31 January, 2013
WEATHER CONDITIONS BREAKOUT
WIND DIRECTION BREAKOUT
WEATHER BY HOUR - 31 JANUARY, 2013
[ °F ]   °C
Local TimeTemperatureDewpointHumidityBarometerVisibilityWind DirectionWind SpeedGust SpeedPrecipitationEventsConditions
12:35 AM7 °C6 °C93 %1031.8 hPa16.1 kmWNW (300°)5.6 km/hOvercast
12:55 AM7 °C6 °C93 %1031.8 hPa16.1 kmCalmOvercast
1:15 AM7 °C6 °C93 %1031.5 hPa16.1 kmWSW (240°)5.6 km/hOvercast
1:35 AM6 °C6 °C100 %1031.8 hPa16.1 kmSW (230°)5.6 km/hOvercast
1:55 AM6 °C5 °C93 %1031.8 hPa16.1 kmCalmOvercast
2:15 AM6 °C6 °C100 %1031.8 hPa16.1 kmCalmOvercast
2:35 AM6 °C6 °C100 %1031.8 hPa16.1 kmCalmOvercast
2:55 AM7 °C6 °C93 %1031.5 hPa16.1 kmCalmOvercast
3:15 AM7 °C6 °C93 %1031.5 hPa16.1 kmCalmOvercast
3:35 AM7 °C6 °C93 %1031.2 hPa16.1 kmCalmOvercast
3:55 AM7 °C6 °C93 %1031.2 hPa16.1 kmCalmOvercast
4:15 AM6 °C5 °C93 %1031.2 hPa16.1 kmCalmOvercast
4:35 AM6 °C6 °C100 %1031.2 hPa16.1 kmWest (280°)7.4 km/hOvercast
4:55 AM6 °C6 °C100 %1030.8 hPa16.1 kmWest (270°)7.4 km/hOvercast
5:15 AM6 °C6 °C100 %1030.8 hPa16.1 kmCalmOvercast
5:35 AM7 °C6 °C93 %1030.8 hPa16.1 kmWNW (290°)7.4 km/hOvercast
5:55 AM7 °C6 °C93 %1030.5 hPa16.1 kmCalmOvercast
6:15 AM7 °C6 °C93 %1030.8 hPa16.1 kmNorth (350°)5.6 km/hOvercast
6:35 AM7 °C6 °C93 %1030.8 hPa16.1 kmCalmOvercast
6:55 AM7 °C6 °C93 %1030.8 hPa12.9 kmCalmOvercast
7:15 AM6 °C6 °C100 %1030.5 hPa12.9 kmCalmOvercast
7:35 AM6 °C5 °C93 %1030.8 hPa16.1 kmCalmOvercast
7:55 AM6 °C5 °C93 %1030.8 hPa16.1 kmSSW (200°)5.6 km/hOvercast
8:15 AM6 °C6 °C100 %1030.8 hPa16.1 kmCalmOvercast
8:35 AM7 °C6 °C93 %1030.8 hPa16.1 kmCalmOvercast
8:55 AM7 °C6 °C93 %1030.8 hPa16.1 kmCalmOvercast
9:15 AM7 °C6 °C93 %1030.8 hPa16.1 kmCalmOvercast
9:35 AM7 °C7 °C100 %1031.2 hPa4.8 kmCalmOvercast
9:55 AM7 °C7 °C100 %1031.2 hPa16.1 kmCalmOvercast
10:15 AM8 °C7 °C93 %1031.2 hPa16.1 kmCalmOvercast
10:35 AM8 °C7 °C93 %1031.2 hPa16.1 kmCalmOvercast
10:55 AM9 °C7 °C87 %1030.8 hPa16.1 kmESE (110°)5.6 km/hOvercast
11:15 AM9 °C7 °C87 %1030.8 hPa16.1 kmESE (120°)5.6 km/hOvercast
11:35 AM9 °C7 °C87 %1030.8 hPa16.1 kmSE (140°)5.6 km/hOvercast
11:55 AM10 °C7 °C82 %1030.5 hPa16.1 kmCalmOvercast
12:15 PM10 °C7 °C82 %1030.5 hPa16.1 kmSSE (160°)5.6 km/hOvercast
12:35 PM10 °C7 °C82 %1030.1 hPa16.1 kmCalmMostly Cloudy
12:55 PM11 °C8 °C82 %1029.8 hPa16.1 kmESE (120°)7.4 km/hOvercast
1:15 PM11 °C7 °C76 %1029.8 hPa16.1 kmCalmOvercast
1:35 PM12 °C7 °C72 %1029.5 hPa16.1 kmSSE (160°)7.4 km/hMostly Cloudy
1:55 PM12 °C6 °C67 %1029.1 hPa16.1 kmSE (130°)5.6 km/hPartly Cloudy
2:15 PM12 °C7 °C72 %1029.1 hPa16.1 kmSE (140°)5.6 km/hScattered Clouds
2:35 PM12 °C6 °C67 %1029.1 hPa16.1 kmSSE (150°)5.6 km/hMostly Cloudy
2:55 PM12 °C7 °C72 %1029.1 hPa16.1 kmCalmOvercast
3:15 PM12 °C6 °C67 %1029.1 hPa16.1 kmCalmOvercast
3:35 PM12 °C6 °C67 %1029.1 hPa16.1 kmCalmMostly Cloudy
4:15 PM11 °C7 °C76 %1028.8 hPa16.1 kmCalmMostly Cloudy
4:35 PM11 °C7 °C76 %1028.8 hPa16.1 kmCalmMostly Cloudy
4:55 PM11 °C7 °C76 %1028.4 hPa16.1 kmSouth (170°)5.6 km/hMostly Cloudy
5:15 PM10 °C7 °C82 %1028.4 hPa16.1 kmSSE (160°)5.6 km/hPartly Cloudy
5:35 PM9 °C6 °C82 %1028.4 hPa16.1 kmSSE (160°)7.4 km/hMostly Cloudy
5:55 PM8 °C6 °C87 %1028.1 hPa16.1 kmSSW (210°)5.6 km/hMostly Cloudy
6:15 PM8 °C6 °C87 %1028.1 hPa16.1 kmWSW (250°)5.6 km/hOvercast
6:35 PM8 °C6 °C87 %1028.1 hPa16.1 kmWNW (290°)5.6 km/hOvercast
7:15 PM8 °C7 °C93 %1028.4 hPa16.1 kmCalmOvercast
7:35 PM7 °C6 °C93 %1028.1 hPa16.1 kmCalmOvercast
8:15 PM7 °C6 °C93 %1028.1 hPa16.1 kmWSW (250°)5.6 km/hOvercast
8:35 PM6 °C6 °C100 %1028.1 hPa16.1 kmWSW (250°)5.6 km/hMostly Cloudy
8:55 PM6 °C6 °C100 %1028.1 hPa16.1 kmCalmMostly Cloudy
9:15 PM6 °C5 °C93 %1028.1 hPa16.1 kmWNW (290°)5.6 km/hMostly Cloudy
9:35 PM6 °C5 °C93 %1028.4 hPa16.1 kmCalmOvercast
9:55 PM6 °C6 °C100 %1028.1 hPa16.1 kmCalmOvercast
10:15 PM7 °C6 °C93 %1028.4 hPa16.1 kmCalmOvercast
10:35 PM7 °C6 °C93 %1028.4 hPa16.1 kmSSW (210°)5.6 km/hOvercast
10:55 PM7 °C6 °C93 %1028.4 hPa16.1 kmSSW (210°)5.6 km/hOvercast
11:15 PM7 °C6 °C93 %1028.1 hPa16.1 kmCalmOvercast
11:35 PM6 °C5 °C93 %1028.4 hPa16.1 kmCalmOvercast
Hourly data recorded from KCVO, located 0 kilometers away from Hoskins, Oregon







STORIES FROM OUR PARTNERS